Hourly Data Report for October 11, 2013

All times are specified in Local Standard Time (LST). Add 1 hour to adjust for Daylight Saving Time where and when it is observed.

KUGAARUK CLIMATE
NUNAVUT

68°32'15.060" N
89°47'47.020" W
15.80 m
2303094
71407
NBB

Download Data

Hourly Data (October 2013)
Hourly Data Report for October 11, 2013
Temp Definition
°C
Dew Point Temp Definition
°C
Rel Hum Definition
%
Wind Dir Definition
10's deg

Wind Spd Definition
km/h
Visibility Definition
km
Stn Press Definition
kPa
Hmdx Definition


Wind Chill Definition


Weather Definition


TIME
00:00 -1.2 -2.8 89 15 39   100.79   -9 LegendNANA
01:00 -1.1 -2.5 90 15 44   100.68   -9 LegendNANA
02:00 -0.9 -2.4 90 15 44   100.60   -9 LegendNANA
03:00 -0.6 -2.1 90 15 39   100.56   -8 LegendNANA
04:00 0.1 -1.3 90 16 30   100.51     LegendNANA
05:00 1.3 -0.3 89 16 30   100.46     LegendNANA
06:00 1.9 -0.1 87 17 30   100.39     LegendNANA
07:00 2.3 0.0 85 17 35   100.34     LegendNANA
08:00 1.9 -0.2 86 19 33   100.29     LegendNANA
09:00 2.8 0.1 82 20 35   100.26     LegendNANA
10:00 3.1 0.4 82 20 32   100.27     LegendNANA
11:00 3.2 0.7 84 21 28   100.29     LegendNANA
12:00 3.0 0.9 86 21 20   100.30     LegendNANA
13:00 3.6 1.3 85 22 17   100.31     LegendNANA
14:00 3.8 1.5 85 22 22   100.29     LegendNANA
15:00 3.7 1.5 86 22 22   100.30     LegendNANA
16:00 3.7 1.6 86 21 24   100.30     LegendNANA
17:00 3.7 1.5 86 22 19   100.34     LegendNANA
18:00 3.7 1.4 85 21 28   100.33     LegendNANA
19:00 3.6 1.3 85 21 20   100.33     LegendNANA
20:00 3.6 1.1 84 22 28   100.31     LegendNANA
21:00 3.2 0.5 82 23 22   100.29     LegendNANA
22:00 2.6 0.7 87 22 15   100.29     LegendNANA
23:00 1.8 -0.4 85 22 19   100.29     LegendNANA

Notes on Data Quality.

Legend

  • E = Estimated
  • M = Missing
  • NA = Not Available
  • ‡ = Partner data that is not subject to review by the National Climate Archives
Date modified: